Centaur AC-72 - Orbit

View from above orbital plane
View from above orbital plane
View from above satellite
View from above satellite

Ground track
Ground track

The orbit data is extracted from the following two-line orbital elements,

1 21907U 92013B   13144.71508867 -.00000105  00000-0  00000+0 0  7487
2 21907 019.6216 023.8735 6956847 007.8573 004.3563 02.25608240174775
Epoch (UTC): 24 May 2013 17:09:43
Eccentricity: 0.6956847
inclination: 19.6216°
perigee height: 1095 km
apogee height: 35261 km
right ascension of ascending node: 23.8735°
argument of perigee: 7.8573°
revolutions per day: 2.25608240
mean anomaly at epoch: 4.3563°
orbit number at epoch: 17477

The dashed part of the orbit path shows where the satellite is in the earth's shadow,  

Developed and maintained by Chris Peat, Heavens-Above GmbH. Please read the updated FAQ before sending e-mail. Imprint. DLR